Location: Hylvaty SDH
(49.9612°N, 16.4057°E)
Time: 03:42:44
(UTC+01:00)

Tiros 1 despin weight - Pass Details

Date: 18 January 2021
Orbit: 593 x 642 km, 48.2° (Epoch: 24 February)

Event Time Altitude Azimuth Distance (km) Brightness Sun altitude
Rises 19:41:21 0° 271° (W) 2,845 ? -30.8°
Reaches altitude 10° 19:43:39 10° 269° (W) 1,936 ? -31.2°
Enters shadow 19:45:53 29° 262° (W) 1,111 ? -31.6°
